^^
Saratoga-Weather Station Historical Data
Daily Summary for June 22, 2022 Units:  Metric    English   Both
Daily Weekly Monthly Yearly Custom
  High: Low: Average:
Temperature: 26.3 °C 17.4 °C 21 °C
Dew Point: 21.4 °C 11.9 °C 16 °C
Humidity: 94% 54% 74%
Wind Speed: 17.7km/h 0km/h 1.9km/h
Wind Gust: 17.7km/h - -
Wind- - SSE
Pressure: 1010.2 hPa 1007.8 hPa -
Precipitation: 8.9 mm    
Historical Graphs
 
 
Tabular Data for June 22, 2022
Time Temperature Dew Point Pressure Wind Wind Speed Wind Gust Humidity Rainfall Rate (Hourly) solar
00:02 21.7 °C 14.3 °C 1009.8 hPa Calm     63% 0.0 mm 0 W/m2
00:07 21.7 °C 14.3 °C 1009.8 hPa Calm   4.8 km/h 63% 0.0 mm 0 W/m2
00:12 21.7 °C 14.1 °C 1009.8 hPa East 3.2 km/h 6.4 km/h 62% 0.0 mm 0 W/m2
00:17 21.6 °C 14 °C 1009.8 hPa SSE 1.4 km/h 4.8 km/h 62% 0.0 mm 0 W/m2
00:22 21.5 °C 14.2 °C 1009.8 hPa South 1.4 km/h 6.4 km/h 63% 0.0 mm 0 W/m2
00:27 21.4 °C 13.8 °C 1009.8 hPa Calm   4.8 km/h 62% 0.0 mm 0 W/m2
00:32 21.4 °C 13.8 °C 1009.8 hPa North 3.2 km/h 4.8 km/h 62% 0.0 mm 0 W/m2
00:37 21.3 °C 14 °C 1009.8 hPa Calm   3.2 km/h 63% 0.0 mm 0 W/m2
00:42 21.3 °C 14 °C 1009.8 hPa NW 1.4 km/h 4.8 km/h 63% 0.0 mm 0 W/m2
00:47 21.2 °C 13.9 °C 1009.8 hPa North 1.4 km/h 4.8 km/h 63% 0.0 mm 0 W/m2
00:52 21.1 °C 13.8 °C 1009.8 hPa WNW 1.4 km/h 4.8 km/h 63% 0.0 mm 0 W/m2
00:57 21 °C 13.7 °C 1009.8 hPa ENE 3.2 km/h 3.2 km/h 63% 0.0 mm 0 W/m2
01:02 20.9 °C 13.6 °C 1009.8 hPa North 4.7 km/h 4.8 km/h 63% 0.0 mm 0 W/m2
01:07 20.8 °C 13.7 °C 1009.8 hPa Calm   1.6 km/h 64% 0.0 mm 0 W/m2
01:12 20.7 °C 13.6 °C 1009.8 hPa East 1.4 km/h 6.4 km/h 64% 0.0 mm 0 W/m2
01:17 20.7 °C 13.6 °C 1009.8 hPa Calm   1.6 km/h 64% 0.0 mm 0 W/m2
01:22 20.6 °C 13.6 °C 1009.8 hPa Calm   4.8 km/h 64% 0.0 mm 0 W/m2
01:27 20.5 °C 13.7 °C 1009.8 hPa ENE 6.4 km/h 6.4 km/h 65% 0.0 mm 0 W/m2
01:32 20.4 °C 13.4 °C 1009.5 hPa ENE 3.2 km/h 3.2 km/h 64% 0.0 mm 0 W/m2
01:37 20.3 °C 13.5 °C 1009.5 hPa WNW 4.7 km/h 4.8 km/h 65% 0.0 mm 0 W/m2
01:42 20.2 °C 13.4 °C 1009.8 hPa Calm   1.6 km/h 65% 0.0 mm 0 W/m2
01:47 20.1 °C 13.3 °C 1009.8 hPa NE 1.4 km/h 4.8 km/h 65% 0.0 mm 0 W/m2
01:52 20 °C 13.5 °C 1009.8 hPa NE 3.2 km/h 4.8 km/h 66% 0.0 mm 0 W/m2
01:57 19.9 °C 13.1 °C 1009.8 hPa Calm   3.2 km/h 65% 0.0 mm 0 W/m2
02:02 19.9 °C 13.1 °C 1009.8 hPa Calm   3.2 km/h 65% 0.0 mm 0 W/m2
02:07 19.8 °C 13 °C 1009.8 hPa West 1.4 km/h 4.8 km/h 65% 0.0 mm 0 W/m2
02:12 19.8 °C 13 °C 1009.8 hPa Calm   4.8 km/h 65% 0.0 mm 0 W/m2
02:17 19.7 °C 13.2 °C 1009.8 hPa NNE 3.2 km/h 4.8 km/h 66% 0.0 mm 0 W/m2
02:22 19.7 °C 12.9 °C 1009.8 hPa WNW 1.4 km/h 4.8 km/h 65% 0.0 mm 0 W/m2
02:27 19.6 °C 13.1 °C 1009.8 hPa Calm   1.6 km/h 66% 0.0 mm 0 W/m2
02:32 19.6 °C 13.1 °C 1009.8 hPa WNW 1.4 km/h 4.8 km/h 66% 0.0 mm 0 W/m2
02:37 19.4 °C 13.1 °C 1009.8 hPa ENE 4.7 km/h 6.4 km/h 67% 0.0 mm 0 W/m2
02:42 19.4 °C 13.1 °C 1009.8 hPa ENE 3.2 km/h 4.8 km/h 67% 0.0 mm 0 W/m2
02:47 19.3 °C 12.8 °C 1009.5 hPa WNW 4.7 km/h 6.4 km/h 66% 0.0 mm 0 W/m2
02:52 19.3 °C 12.8 °C 1009.5 hPa NNW 3.2 km/h 4.8 km/h 66% 0.0 mm 0 W/m2
02:57 19.2 °C 12.7 °C 1009.1 hPa WSW 1.4 km/h 4.8 km/h 66% 0.0 mm 0 W/m2
03:02 19.2 °C 12.7 °C 1009.1 hPa NNW 4.7 km/h 4.8 km/h 66% 0.0 mm 0 W/m2
03:07 19.1 °C 12.6 °C 1009.1 hPa Calm   4.8 km/h 66% 0.0 mm 0 W/m2
03:12 19 °C 12.7 °C 1009.1 hPa West 4.7 km/h 6.4 km/h 67% 0.0 mm 0 W/m2
03:17 18.9 °C 12.6 °C 1009.1 hPa Calm   1.6 km/h 67% 0.0 mm 0 W/m2
03:22 18.9 °C 12.6 °C 1009.1 hPa SSW 6.4 km/h 6.4 km/h 67% 0.0 mm 0 W/m2
03:27 18.8 °C 12.5 °C 1009.1 hPa Calm   3.2 km/h 67% 0.0 mm 0 W/m2
03:32 18.8 °C 12.5 °C 1009.1 hPa WNW 3.2 km/h 3.2 km/h 67% 0.0 mm 0 W/m2
03:37 18.8 °C 12.5 °C 1009.1 hPa North 3.2 km/h 4.8 km/h 67% 0.0 mm 0 W/m2
03:42 18.8 °C 12.3 °C 1009.1 hPa East 1.4 km/h 4.8 km/h 66% 0.0 mm 0 W/m2
03:47 18.7 °C 12.2 °C 1009.1 hPa ESE 3.2 km/h 6.4 km/h 66% 0.0 mm 0 W/m2
03:52 18.6 °C 12.1 °C 1008.8 hPa East 1.4 km/h 4.8 km/h 66% 0.0 mm 0 W/m2
03:57 18.6 °C 12.4 °C 1008.8 hPa Calm   3.2 km/h 67% 0.0 mm 0 W/m2
04:02 18.4 °C 12.2 °C 1008.8 hPa NW 1.4 km/h 1.6 km/h 67% 0.0 mm 0 W/m2
04:07 18.4 °C 12.2 °C 1008.8 hPa WNW 1.4 km/h 4.8 km/h 67% 0.0 mm 0 W/m2
04:12 18.3 °C 12.3 °C 1009.1 hPa NE 1.4 km/h 3.2 km/h 68% 0.0 mm 0 W/m2
04:17 18.3 °C 12.3 °C 1009.1 hPa NNW 1.4 km/h 3.2 km/h 68% 0.0 mm 0 W/m2
04:22 18.3 °C 12.3 °C 1009.1 hPa ENE 1.4 km/h 3.2 km/h 68% 0.0 mm 0 W/m2
04:27 18.3 °C 12.3 °C 1009.1 hPa Calm   1.6 km/h 68% 0.0 mm 0 W/m2
04:32 18.2 °C 12.2 °C 1008.8 hPa Calm     68% 0.0 mm 0 W/m2
04:37 18.2 °C 12.2 °C 1009.1 hPa NE 1.4 km/h 1.6 km/h 68% 0.0 mm 0 W/m2
04:42 18.2 °C 12.2 °C 1009.1 hPa Calm   3.2 km/h 68% 0.0 mm 0 W/m2
04:47 18.1 °C 12.1 °C 1009.1 hPa Calm   4.8 km/h 68% 0.0 mm 0 W/m2
04:52 18.1 °C 12.1 °C 1009.1 hPa Calm   1.6 km/h 68% 0.0 mm 0 W/m2
04:57 18 °C 12.2 °C 1009.1 hPa Calm   1.6 km/h 69% 0.0 mm 0 W/m2
05:02 18 °C 12 °C 1009.1 hPa Calm   3.2 km/h 68% 0.0 mm 0 W/m2
05:07 17.9 °C 12.1 °C 1008.8 hPa East 1.4 km/h 1.6 km/h 69% 0.0 mm 0 W/m2
05:12 17.9 °C 12.1 °C 1008.8 hPa East 1.4 km/h 1.6 km/h 69% 0.0 mm 0 W/m2
05:17 17.8 °C 12 °C 1009.1 hPa Calm   3.2 km/h 69% 0.0 mm 0 W/m2
05:22 17.8 °C 12 °C 1009.1 hPa Calm   4.8 km/h 69% 0.0 mm 7 W/m2
05:27 17.8 °C 12 °C 1009.1 hPa Calm   1.6 km/h 69% 0.0 mm 7 W/m2
05:32 17.7 °C 12.2 °C 1009.1 hPa Calm   4.8 km/h 70% 0.0 mm 5 W/m2
05:37 17.6 °C 12.1 °C 1009.1 hPa Calm   1.6 km/h 70% 0.0 mm 5 W/m2
05:42 17.6 °C 12.1 °C 1009.1 hPa Calm   1.6 km/h 70% 0.0 mm 7 W/m2
05:47 17.6 °C 12.1 °C 1009.1 hPa Calm     70% 0.0 mm 9 W/m2
05:52 17.5 °C 12 °C 1009.5 hPa Calm     70% 0.0 mm 11 W/m2
05:57 17.5 °C 12 °C 1009.1 hPa Calm     70% 0.0 mm 16 W/m2
06:02 17.4 °C 11.9 °C 1009.1 hPa Calm     70% 0.0 mm 18 W/m2
06:07 17.4 °C 12.1 °C 1009.1 hPa Calm   1.6 km/h 71% 0.0 mm 16 W/m2
06:12 17.4 °C 11.9 °C 1009.1 hPa Calm   1.6 km/h 70% 0.0 mm 19 W/m2
06:17 17.4 °C 11.9 °C 1009.1 hPa Calm     70% 0.0 mm 23 W/m2
06:22 17.4 °C 11.9 °C 1009.1 hPa ENE 1.4 km/h 6.4 km/h 70% 0.0 mm 21 W/m2
06:27 17.5 °C 12 °C 1009.1 hPa East 3.2 km/h 3.2 km/h 70% 0.0 mm 23 W/m2
06:32 17.5 °C 12 °C 1009.1 hPa East 3.2 km/h 6.4 km/h 70% 0.0 mm 28 W/m2
06:37 17.5 °C 12 °C 1009.1 hPa Calm   1.6 km/h 70% 0.0 mm 35 W/m2
06:42 17.5 °C 12 °C 1009.1 hPa NW 3.2 km/h 3.2 km/h 70% 0.0 mm 40 W/m2
06:47 17.6 °C 12.3 °C 1009.1 hPa Calm     71% 0.0 mm 47 W/m2
06:52 17.6 °C 12.3 °C 1009.1 hPa Calm   3.2 km/h 71% 0.0 mm 62 W/m2
06:57 17.6 °C 12.1 °C 1009.5 hPa WNW 1.4 km/h 1.6 km/h 70% 0.0 mm 65 W/m2
07:02 17.7 °C 12.2 °C 1009.5 hPa Calm   3.2 km/h 70% 0.0 mm 62 W/m2
07:07 17.8 °C 12.3 °C 1009.5 hPa Calm   3.2 km/h 70% 0.0 mm 60 W/m2
07:12 17.8 °C 12 °C 1009.5 hPa WNW 3.2 km/h 4.8 km/h 69% 0.0 mm 65 W/m2
07:17 17.9 °C 12.1 °C 1009.5 hPa Calm   4.8 km/h 69% 0.0 mm 62 W/m2
07:22 17.9 °C 12.1 °C 1009.5 hPa North 1.4 km/h 4.8 km/h 69% 0.0 mm 51 W/m2
07:28 17.9 °C 12.1 °C 1009.5 hPa NE 3.2 km/h 4.8 km/h 69% 0.0 mm 42 W/m2
07:33 17.9 °C 12.1 °C 1009.5 hPa Calm   4.8 km/h 69% 0.0 mm 40 W/m2
07:38 17.9 °C 12.1 °C 1009.8 hPa Calm   3.2 km/h 69% 0.0 mm 35 W/m2
07:43 17.9 °C 12.1 °C 1009.8 hPa North 1.4 km/h 4.8 km/h 69% 0.0 mm 30 W/m2
07:48 18 °C 12.2 °C 1009.5 hPa Calm   1.6 km/h 69% 0.0 mm 33 W/m2
07:53 18 °C 12.2 °C 1009.5 hPa Calm   3.2 km/h 69% 0.0 mm 49 W/m2
07:58 18.1 °C 12.3 °C 1009.5 hPa Calm   1.6 km/h 69% 0.0 mm 62 W/m2
08:03 18.1 °C 12.3 °C 1009.5 hPa North 1.4 km/h 3.2 km/h 69% 0.0 mm 62 W/m2
08:08 18.1 °C 12.5 °C 1009.5 hPa NE 3.2 km/h 9.7 km/h 70% 0.0 mm 98 W/m2
08:13 18.1 °C 12.5 °C 1009.5 hPa ENE 1.4 km/h 4.8 km/h 70% 0.0 mm 160 W/m2
08:18 18.1 °C 12.8 °C 1009.1 hPa NE 1.4 km/h 3.2 km/h 71% 0.0 mm 183 W/m2
08:23 18.2 °C 12.9 °C 1009.1 hPa Calm   3.2 km/h 71% 0.0 mm 118 W/m2
08:28 18.3 °C 13.2 °C 1008.8 hPa Calm   1.6 km/h 72% 0.0 mm 128 W/m2
08:33 18.3 °C 13 °C 1008.8 hPa SE 1.4 km/h 3.2 km/h 71% 0.0 mm 118 W/m2
08:38 18.4 °C 13 °C 1008.8 hPa Calm   3.2 km/h 71% 0.0 mm 95 W/m2
08:43 18.3 °C 13 °C 1009.1 hPa NE 1.4 km/h 3.2 km/h 71% 0.0 mm 97 W/m2
08:48 18.3 °C 13 °C 1009.1 hPa NE 3.2 km/h 3.2 km/h 71% 0.0 mm 109 W/m2
08:53 18.3 °C 13.2 °C 1009.1 hPa ESE 3.2 km/h 4.8 km/h 72% 0.0 mm 113 W/m2
08:58 18.3 °C 13.2 °C 1009.1 hPa Calm   1.6 km/h 72% 0.0 mm 100 W/m2
09:03 18.4 °C 13 °C 1009.1 hPa Calm   4.8 km/h 71% 0.0 mm 90 W/m2
09:08 18.4 °C 13 °C 1009.1 hPa SSE 1.4 km/h 1.6 km/h 71% 0.0 mm 86 W/m2
09:13 18.5 °C 12.9 °C 1009.1 hPa Calm   3.2 km/h 70% 0.0 mm 90 W/m2
09:18 18.6 °C 13 °C 1009.1 hPa ENE 3.2 km/h 3.2 km/h 70% 0.0 mm 91 W/m2
09:23 18.7 °C 13.1 °C 1009.5 hPa Calm   1.6 km/h 70% 0.0 mm 97 W/m2
09:28 18.7 °C 12.9 °C 1009.5 hPa Calm     69% 0.0 mm 100 W/m2
09:33 18.8 °C 13 °C 1009.5 hPa NNW 1.4 km/h 1.6 km/h 69% 0.0 mm 105 W/m2
09:38 18.8 °C 13 °C 1009.5 hPa Calm   1.6 km/h 69% 0.0 mm 113 W/m2
09:43 18.9 °C 13.1 °C 1009.5 hPa Calm   1.6 km/h 69% 0.0 mm 113 W/m2
09:48 19.1 °C 13.3 °C 1009.5 hPa NNW 1.4 km/h 1.6 km/h 69% 0.0 mm 113 W/m2
09:53 19.1 °C 13.3 °C 1009.5 hPa Calm   1.6 km/h 69% 0.0 mm 146 W/m2
09:58 19.2 °C 13.4 °C 1009.1 hPa NE 3.2 km/h 4.8 km/h 69% 0.0 mm 185 W/m2
10:03 19.3 °C 13.2 °C 1009.1 hPa ENE 3.2 km/h 4.8 km/h 68% 0.0 mm 206 W/m2
10:08 19.4 °C 13.3 °C 1009.1 hPa East 3.2 km/h 3.2 km/h 68% 0.0 mm 236 W/m2
10:13 19.6 °C 13.5 °C 1009.1 hPa Calm   3.2 km/h 68% 0.0 mm 267 W/m2
10:18 19.8 °C 13.7 °C 1009.1 hPa ENE 1.4 km/h 3.2 km/h 68% 0.0 mm 255 W/m2
10:23 19.9 °C 13.8 °C 1009.1 hPa ENE 3.2 km/h 6.4 km/h 68% 0.0 mm 274 W/m2
10:28 20.1 °C 13.8 °C 1009.1 hPa NW 1.4 km/h 8 km/h 67% 0.0 mm 318 W/m2
10:33 20.3 °C 14 °C 1009.1 hPa NE 1.4 km/h 3.2 km/h 67% 0.0 mm 452 W/m2
10:38 20.7 °C 14.1 °C 1008.8 hPa Calm   8 km/h 66% 0.0 mm 548 W/m2
10:43 21.1 °C 14.5 °C 1008.8 hPa ESE 3.2 km/h 3.2 km/h 66% 0.0 mm 485 W/m2
10:48 21.4 °C 14.1 °C 1009.1 hPa East 3.2 km/h 6.4 km/h 63% 0.0 mm 494 W/m2
10:53 21.6 °C 14.3 °C 1009.1 hPa ENE 3.2 km/h 4.8 km/h 63% 0.0 mm 540 W/m2
10:58 21.8 °C 14.2 °C 1009.1 hPa NNW 1.4 km/h 6.4 km/h 62% 0.0 mm 390 W/m2
11:03 22 °C 13.9 °C 1009.1 hPa ENE 1.4 km/h 8 km/h 60% 0.0 mm 345 W/m2
11:08 22.1 °C 14 °C 1009.1 hPa NE 3.2 km/h 6.4 km/h 60% 0.0 mm 394 W/m2
11:13 22.2 °C 14.3 °C 1009.1 hPa East 4.7 km/h 8 km/h 61% 0.0 mm 396 W/m2
11:18 22.3 °C 14.4 °C 1009.1 hPa SSE 3.2 km/h 6.4 km/h 61% 0.0 mm 366 W/m2
11:23 22.6 °C 14.4 °C 1009.1 hPa SSE 4.7 km/h 6.4 km/h 60% 0.0 mm 761 W/m2
11:28 22.9 °C 14.7 °C 1009.1 hPa East 4.7 km/h 9.7 km/h 60% 0.0 mm 791 W/m2
11:33 23.3 °C 15.1 °C 1009.1 hPa NE 3.2 km/h 6.4 km/h 60% 0.0 mm 564 W/m2
11:38 23.6 °C 15.1 °C 1009.1 hPa Calm   4.8 km/h 59% 0.0 mm 541 W/m2
11:43 23.7 °C 15.2 °C 1009.1 hPa NE 4.7 km/h 11.3 km/h 59% 0.0 mm 874 W/m2
11:48 23.9 °C 15.4 °C 1009.1 hPa ESE 4.7 km/h 8 km/h 59% 0.0 mm 798 W/m2
11:53 24.2 °C 15.1 °C 1009.1 hPa ESE 6.4 km/h 8 km/h 57% 0.0 mm 455 W/m2
11:58 24.2 °C 15.1 °C 1009.1 hPa ESE 3.2 km/h 6.4 km/h 57% 0.0 mm 515 W/m2
12:03 24.2 °C 15.4 °C 1009.1 hPa NNE 3.2 km/h 4.8 km/h 58% 0.0 mm 712 W/m2
12:08 24.4 °C 15.3 °C 1009.1 hPa NE 3.2 km/h 9.7 km/h 57% 0.0 mm 710 W/m2
12:13 24.6 °C 15.8 °C 1009.1 hPa SE 4.7 km/h 11.3 km/h 58% 0.0 mm 589 W/m2
12:18 24.9 °C 15.8 °C 1008.8 hPa ESE 1.4 km/h 6.4 km/h 57% 0.0 mm 682 W/m2
12:23 25.2 °C 15.8 °C 1008.8 hPa ENE 6.4 km/h 11.3 km/h 56% 0.0 mm 603 W/m2
12:28 25.3 °C 15.6 °C 1008.8 hPa East 3.2 km/h 6.4 km/h 55% 0.0 mm 573 W/m2
12:33 25.3 °C 15.9 °C 1008.8 hPa ESE 6.4 km/h 8 km/h 56% 0.0 mm 877 W/m2
12:38 25.6 °C 16.2 °C 1008.8 hPa SE 4.7 km/h 6.4 km/h 56% 0.0 mm 580 W/m2
12:43 25.8 °C 16.4 °C 1008.8 hPa NE 6.4 km/h 6.4 km/h 56% 0.0 mm 555 W/m2
12:48 25.8 °C 15.8 °C 1008.8 hPa North 4.7 km/h 6.4 km/h 54% 0.0 mm 728 W/m2
12:53 25.9 °C 17.3 °C 1008.8 hPa SE 3.2 km/h 11.3 km/h 59% 0.0 mm 487 W/m2
12:58 26.1 °C 17.7 °C 1008.8 hPa ENE 11.1 km/h 11.3 km/h 60% 0.0 mm 533 W/m2
13:03 25.9 °C 17.5 °C 1008.8 hPa ENE 4.7 km/h 6.4 km/h 60% 0.0 mm 584 W/m2
13:08 26.2 °C 18.1 °C 1008.8 hPa ENE 3.2 km/h 9.7 km/h 61% 0.0 mm 496 W/m2
13:13 26.3 °C 17.9 °C 1008.8 hPa NE 3.2 km/h 14.5 km/h 60% 0.0 mm 469 W/m2
13:18 26.3 °C 18.2 °C 1008.8 hPa East 6.4 km/h 6.4 km/h 61% 0.0 mm 650 W/m2
13:23 26.3 °C 18.2 °C 1008.8 hPa ENE 4.7 km/h 14.5 km/h 61% 0.0 mm 403 W/m2
13:28 26.3 °C 18.2 °C 1008.8 hPa East 1.4 km/h 9.7 km/h 61% 0.0 mm 362 W/m2
13:33 26.3 °C 18.7 °C 1008.8 hPa East 9.7 km/h 11.3 km/h 63% 0.0 mm 290 W/m2
13:38 26.1 °C 18.5 °C 1008.8 hPa SE 1.4 km/h 3.2 km/h 63% 0.0 mm 267 W/m2
13:43 26.1 °C 18.5 °C 1008.8 hPa ESE 1.4 km/h 3.2 km/h 63% 0.0 mm 302 W/m2
13:48 26.1 °C 18.5 °C 1008.8 hPa ENE 3.2 km/h 8 km/h 63% 0.0 mm 239 W/m2
13:53 25.9 °C 18.3 °C 1008.8 hPa NNW 3.2 km/h 8 km/h 63% 0.0 mm 176 W/m2
13:58 25.7 °C 18.4 °C 1008.5 hPa ESE 1.4 km/h 3.2 km/h 64% 0.0 mm 163 W/m2
14:03 25.6 °C 18.5 °C 1008.5 hPa East 3.2 km/h 11.3 km/h 65% 0.0 mm 169 W/m2
14:08 25.4 °C 18.3 °C 1008.5 hPa South 1.4 km/h 9.7 km/h 65% 0.0 mm 248 W/m2
14:13 25.4 °C 18.3 °C 1008.5 hPa ENE 1.4 km/h 11.3 km/h 65% 0.0 mm 288 W/m2
14:18 25.4 °C 18.3 °C 1008.5 hPa ESE 1.4 km/h 9.7 km/h 65% 0.0 mm 264 W/m2
14:23 25.4 °C 18.3 °C 1008.5 hPa SSE 3.2 km/h 3.2 km/h 65% 0.0 mm 197 W/m2
14:28 25.4 °C 18.3 °C 1008.5 hPa Calm   4.8 km/h 65% 0.0 mm 174 W/m2
14:33 25.5 °C 18.4 °C 1008.5 hPa East 1.4 km/h 4.8 km/h 65% 0.0 mm 144 W/m2
14:38 25.4 °C 18.3 °C 1008.5 hPa East 3.2 km/h 6.4 km/h 65% 0.0 mm 95 W/m2
14:43 25.3 °C 18.5 °C 1008.5 hPa ESE 1.4 km/h 6.4 km/h 66% 0.0 mm 93 W/m2
14:48 25.2 °C 18.6 °C 1008.5 hPa SE 3.2 km/h 3.2 km/h 67% 0.0 mm 79 W/m2
14:53 25.1 °C 18.5 °C 1008.5 hPa NNE 1.4 km/h 3.2 km/h 67% 0.0 mm 65 W/m2
14:58 25.1 °C 18.5 °C 1008.5 hPa Calm   3.2 km/h 67% 0.0 mm 69 W/m2
15:03 25.1 °C 18.5 °C 1008.5 hPa ESE 1.4 km/h 3.2 km/h 67% 0.0 mm 53 W/m2
15:08 25 °C 18.4 °C 1008.5 hPa SW 3.2 km/h 3.2 km/h 67% 0.0 mm 28 W/m2
15:13 24.2 °C 18.2 °C 1008.8 hPa NW 16.3 km/h 17.7 km/h 69% 0.0 mm 11 W/m2
15:18 22.9 °C 18 °C 1008.8 hPa NW 11.1 km/h 17.7 km/h 74% 0.0 mm 12 W/m2
15:23 22.2 °C 17.8 °C 1009.1 hPa WNW 6.4 km/h 12.9 km/h 76% 0.0 mm 18 W/m2
15:28 21.6 °C 17.8 °C 1008.8 hPa West 17.7 km/h 17.7 km/h 79% 1.5 mm 23 W/m2
15:33 20.6 °C 17.8 °C 1008.8 hPa West 4.7 km/h 9.7 km/h 84% 6.9 mm 28 W/m2
15:38 19.8 °C 17.6 °C 1008.5 hPa West 17.7 km/h 17.7 km/h 87% 7.6 mm 32 W/m2
15:43 19.4 °C 17.5 °C 1008.5 hPa WNW 4.7 km/h 9.7 km/h 89% 7.9 mm 33 W/m2
15:48 19.3 °C 17.6 °C 1008.1 hPa WNW 1.4 km/h 4.8 km/h 90% 7.9 mm 37 W/m2
15:53 19.3 °C 17.8 °C 1008.1 hPa WNW 1.4 km/h 3.2 km/h 91% 8.1 mm 42 W/m2
15:58 19.3 °C 18 °C 1008.1 hPa WNW 1.4 km/h 3.2 km/h 92% 8.4 mm 46 W/m2
16:03 19.3 °C 18 °C 1008.1 hPa Calm   1.6 km/h 92% 8.4 mm 47 W/m2
16:08 19.3 °C 18.1 °C 1008.1 hPa NNW 1.4 km/h 1.6 km/h 93% 8.4 mm 51 W/m2
16:13 19.4 °C 18.2 °C 1008.1 hPa WNW 3.2 km/h 3.2 km/h 93% 8.6 mm 58 W/m2
16:18 19.4 °C 18.2 °C 1008.5 hPa WSW 3.2 km/h 3.2 km/h 93% 8.9 mm 67 W/m2
16:23 19.3 °C 18.1 °C 1008.5 hPa West 6.4 km/h 8 km/h 93% 8.9 mm 74 W/m2
16:28 19.2 °C 18 °C 1008.5 hPa Calm   6.4 km/h 93% 6.9 mm 90 W/m2
16:34 19.3 °C 18.3 °C 1008.5 hPa Calm   1.6 km/h 94% 1.8 mm 148 W/m2
16:39 19.3 °C 18.3 °C 1008.5 hPa Calm     94% 1.0 mm 232 W/m2
16:44 19.6 °C 18.6 °C 1008.5 hPa NW 6.4 km/h 6.4 km/h 94% 1.0 mm 278 W/m2
16:49 19.8 °C 18.8 °C 1008.5 hPa WSW 4.7 km/h 11.3 km/h 94% 0.8 mm 295 W/m2
16:54 19.7 °C 18.7 °C 1008.5 hPa Calm   3.2 km/h 94% 0.5 mm 322 W/m2
16:59 19.9 °C 18.9 °C 1008.5 hPa WSW 1.4 km/h 9.7 km/h 94% 0.5 mm 357 W/m2
17:04 20.1 °C 19.1 °C 1008.8 hPa NNW 3.2 km/h 4.8 km/h 94% 0.5 mm 399 W/m2
17:09 20.3 °C 19.1 °C 1008.8 hPa Calm   1.6 km/h 93% 0.5 mm 436 W/m2
17:14 20.7 °C 19.5 °C 1008.8 hPa NNW 3.2 km/h 3.2 km/h 93% 0.2 mm 717 W/m2
17:19 21.2 °C 20 °C 1008.5 hPa NNW 1.4 km/h 3.2 km/h 93% 0.0 mm 714 W/m2
17:24 21.6 °C 20.2 °C 1008.5 hPa WNW 3.2 km/h 6.4 km/h 92% 0.0 mm 749 W/m2
17:29 22.2 °C 20.7 °C 1008.5 hPa NE 1.4 km/h 3.2 km/h 91% 0.0 mm 677 W/m2
17:34 22.5 °C 20.2 °C 1008.5 hPa NE 3.2 km/h 6.4 km/h 87% 0.0 mm 568 W/m2
17:39 22.8 °C 20.1 °C 1008.1 hPa Calm   1.6 km/h 85% 0.0 mm 563 W/m2
17:44 23.1 °C 20.2 °C 1008.1 hPa East 3.2 km/h 4.8 km/h 84% 0.0 mm 550 W/m2
17:49 23.3 °C 20.2 °C 1008.1 hPa ENE 1.4 km/h 4.8 km/h 83% 0.0 mm 489 W/m2
17:54 23.6 °C 20.5 °C 1008.1 hPa Calm     83% 0.0 mm 287 W/m2
17:59 23.8 °C 20.5 °C 1008.1 hPa NE 3.2 km/h 3.2 km/h 82% 0.0 mm 482 W/m2
18:04 23.9 °C 20 °C 1007.8 hPa NNE 3.2 km/h 4.8 km/h 79% 0.0 mm 457 W/m2
18:09 24.1 °C 20 °C 1007.8 hPa NE 1.4 km/h 3.2 km/h 78% 0.0 mm 471 W/m2
18:14 24.3 °C 20.8 °C 1007.8 hPa East 4.7 km/h 4.8 km/h 81% 0.0 mm 455 W/m2
18:19 24.4 °C 20.5 °C 1007.8 hPa East 1.4 km/h 8 km/h 79% 0.0 mm 478 W/m2
18:24 24.4 °C 20.1 °C 1007.8 hPa SE 4.7 km/h 6.4 km/h 77% 0.0 mm 464 W/m2
18:29 24.5 °C 20.4 °C 1007.8 hPa East 1.4 km/h 6.4 km/h 78% 0.0 mm 392 W/m2
18:34 24.5 °C 20.4 °C 1007.8 hPa SE 3.2 km/h 4.8 km/h 78% 0.0 mm 385 W/m2
18:39 24.6 °C 20.9 °C 1007.8 hPa Calm   3.2 km/h 80% 0.0 mm 287 W/m2
18:44 24.6 °C 21.1 °C 1007.8 hPa SE 1.4 km/h 1.6 km/h 81% 0.0 mm 251 W/m2
18:49 24.6 °C 21.3 °C 1007.8 hPa SE 1.4 km/h 1.6 km/h 82% 0.0 mm 262 W/m2
18:54 24.5 °C 21.2 °C 1007.8 hPa ESE 1.4 km/h 4.8 km/h 82% 0.0 mm 204 W/m2
18:59 24.4 °C 20.7 °C 1007.8 hPa SSE 1.4 km/h 1.6 km/h 80% 0.0 mm 172 W/m2
19:04 24.5 °C 21.2 °C 1007.8 hPa ESE 1.4 km/h 1.6 km/h 82% 0.0 mm 165 W/m2
19:09 24.5 °C 21.2 °C 1008.1 hPa Calm   3.2 km/h 82% 0.0 mm 171 W/m2
19:14 24.5 °C 21.4 °C 1008.5 hPa Calm   1.6 km/h 83% 0.0 mm 174 W/m2
19:19 24.5 °C 21.2 °C 1008.5 hPa SE 1.4 km/h 3.2 km/h 82% 0.0 mm 162 W/m2
19:24 24.4 °C 21.1 °C 1008.5 hPa Calm     82% 0.0 mm 156 W/m2
19:29 24.4 °C 21.1 °C 1008.5 hPa South 3.2 km/h 3.2 km/h 82% 0.0 mm 146 W/m2
19:34 24.3 °C 21 °C 1008.5 hPa Calm   1.6 km/h 82% 0.0 mm 137 W/m2
19:39 24.3 °C 21.2 °C 1008.5 hPa South 1.4 km/h 3.2 km/h 83% 0.0 mm 128 W/m2
19:44 24.2 °C 21.3 °C 1008.5 hPa SSW 1.4 km/h 1.6 km/h 84% 0.0 mm 114 W/m2
19:49 24.1 °C 21.2 °C 1008.5 hPa Calm   1.6 km/h 84% 0.0 mm 97 W/m2
19:54 24.1 °C 20.8 °C 1008.1 hPa NNE 1.4 km/h 4.8 km/h 82% 0.0 mm 91 W/m2
19:59 23.9 °C 20.8 °C 1008.1 hPa SE 1.4 km/h 3.2 km/h 83% 0.0 mm 65 W/m2
20:04 23.7 °C 20.8 °C 1008.1 hPa Calm   4.8 km/h 84% 0.0 mm 102 W/m2
20:09 23.6 °C 20.7 °C 1008.5 hPa SE 3.2 km/h 3.2 km/h 84% 0.0 mm 49 W/m2
20:14 23.3 °C 20.1 °C 1008.1 hPa SSW 4.7 km/h 4.8 km/h 82% 0.0 mm 42 W/m2
20:19 23.1 °C 20.1 °C 1008.5 hPa Calm   1.6 km/h 83% 0.0 mm 53 W/m2
20:24 22.9 °C 20.1 °C 1008.5 hPa Calm   4.8 km/h 84% 0.0 mm 53 W/m2
20:29 22.6 °C 19.9 °C 1008.1 hPa South 1.4 km/h 1.6 km/h 85% 0.0 mm 56 W/m2
20:34 22.4 °C 19.9 °C 1008.5 hPa Calm   1.6 km/h 86% 0.0 mm 63 W/m2
20:39 22.2 °C 19.7 °C 1008.5 hPa Calm   1.6 km/h 86% 0.0 mm 69 W/m2
20:44 22.2 °C 19.7 °C 1008.1 hPa SE 1.4 km/h 1.6 km/h 86% 0.0 mm 69 W/m2
20:49 22.2 °C 19.7 °C 1008.1 hPa Calm   1.6 km/h 86% 0.0 mm 65 W/m2
20:54 22.1 °C 19.6 °C 1008.1 hPa East 1.4 km/h 3.2 km/h 86% 0.0 mm 56 W/m2
20:59 22.1 °C 19.6 °C 1008.1 hPa SE 1.4 km/h 1.6 km/h 86% 0.0 mm 49 W/m2
21:04 22.1 °C 19.5 °C 1008.5 hPa Calm   1.6 km/h 85% 0.0 mm 40 W/m2
21:09 22 °C 19.5 °C 1008.5 hPa Calm   1.6 km/h 86% 0.0 mm 35 W/m2
21:14 21.9 °C 19.5 °C 1008.5 hPa SSW 1.4 km/h 4.8 km/h 86% 0.0 mm 28 W/m2
21:19 21.8 °C 19.5 °C 1008.8 hPa Calm   1.6 km/h 87% 0.0 mm 25 W/m2
21:24 21.6 °C 19.3 °C 1008.8 hPa SSW 1.4 km/h 4.8 km/h 87% 0.0 mm 19 W/m2
21:29 21.5 °C 19.2 °C 1008.8 hPa Calm     87% 0.0 mm 12 W/m2
21:34 21.4 °C 19.3 °C 1008.8 hPa Calm   1.6 km/h 88% 0.0 mm 9 W/m2
21:39 21.3 °C 19.2 °C 1008.5 hPa Calm     88% 0.0 mm 9 W/m2
21:44 21.2 °C 19.1 °C 1008.5 hPa Calm     88% 0.0 mm 7 W/m2
21:49 21 °C 18.9 °C 1008.8 hPa Calm   3.2 km/h 88% 0.0 mm 5 W/m2
21:54 20.8 °C 18.7 °C 1009.1 hPa SSW 1.4 km/h 3.2 km/h 88% 0.0 mm 5 W/m2
21:59 20.6 °C 18.7 °C 1009.1 hPa Calm   1.6 km/h 89% 0.0 mm 0 W/m2
22:04 20.5 °C 18.6 °C 1009.1 hPa Calm   3.2 km/h 89% 0.0 mm 0 W/m2
22:09 20.3 °C 18.4 °C 1009.1 hPa Calm     89% 0.0 mm 0 W/m2
22:14 20.2 °C 18.3 °C 1009.1 hPa Calm     89% 0.0 mm 0 W/m2
22:19 20.2 °C 18.5 °C 1009.1 hPa Calm     90% 0.0 mm 0 W/m2
22:24 20.1 °C 18.4 °C 1009.5 hPa Calm     90% 0.0 mm 0 W/m2
22:29 20.1 °C 18.6 °C 1009.5 hPa Calm     91% 0.0 mm 0 W/m2
22:34 20 °C 18.5 °C 1009.5 hPa Calm     91% 0.0 mm 0 W/m2
22:39 19.9 °C 18.4 °C 1009.8 hPa Calm     91% 0.0 mm 0 W/m2
22:44 19.9 °C 18.4 °C 1009.8 hPa Calm   1.6 km/h 91% 0.0 mm 0 W/m2
22:49 19.8 °C 18.3 °C 1009.8 hPa SSW 1.4 km/h 1.6 km/h 91% 0.0 mm 0 W/m2
22:54 19.8 °C 18.5 °C 1009.8 hPa Calm   1.6 km/h 92% 0.0 mm 0 W/m2
22:59 19.8 °C 18.5 °C 1010.2 hPa Calm     92% 0.0 mm 0 W/m2
23:04 19.8 °C 18.5 °C 1010.2 hPa Calm     92% 0.0 mm 0 W/m2
23:09 19.8 °C 18.5 °C 1010.2 hPa Calm     92% 0.0 mm 0 W/m2
23:14 19.8 °C 18.5 °C 1010.2 hPa Calm     92% 0.0 mm 0 W/m2
23:19 19.8 °C 18.5 °C 1010.2 hPa Calm     92% 0.0 mm 0 W/m2
23:24 19.8 °C 18.5 °C 1010.2 hPa Calm     92% 0.0 mm 0 W/m2
23:29 19.8 °C 18.5 °C 1010.2 hPa Calm     92% 0.0 mm 0 W/m2
23:34 19.8 °C 18.5 °C 1010.2 hPa Calm     92% 0.0 mm 0 W/m2
23:39 19.8 °C 18.5 °C 1010.2 hPa Calm     92% 0.0 mm 0 W/m2
23:44 19.7 °C 18.4 °C 1010.2 hPa Calm     92% 0.0 mm 0 W/m2
23:49 19.7 °C 18.4 °C 1010.2 hPa Calm     92% 0.0 mm 0 W/m2
23:54 19.7 °C 18.4 °C 1010.2 hPa Calm     92% 0.0 mm 0 W/m2
23:59 19.7 °C 18.4 °C 1010.2 hPa Calm     92% 0.0 mm 0 W/m2
Juneau County Weather
Compliments of Weather Underground - 4 mb